Location: Unspecified
(43.3830°N, 0.0000°E)
Time: 11:19:48
(UTC+00:00)

S-56A Canister/Altair - All Passes

Search period start: 19 June 2019 00:00
Search period end: 29 June 2019 00:00
Orbit: 633 x 2499 km, 38.9° (Epoch: 18 June)

Date Brightness Start Highest point End Pass type
(mag) Time Alt. Az. Time Alt. Az. Time Alt. Az.
19 Jun - 15:12:59 10° SSW 15:20:01 23° SSE 15:25:20 10° ESE daylight
19 Jun - 17:16:26 10° WSW 17:23:58 46° SSE 17:29:12 10° E daylight
19 Jun - 19:21:32 10° W 19:27:33 53° S 19:32:07 10° ESE daylight
19 Jun - 21:26:31 10° W 21:30:36 26° SSW 21:34:18 10° SSE visible
20 Jun - 14:39:59 10° SSW 14:47:13 22° SSE 14:52:45 10° ESE daylight
20 Jun - 16:43:10 10° SW 16:51:17 45° SSE 16:56:50 10° E daylight
20 Jun - 18:48:25 10° W 18:55:00 56° S 18:59:47 10° ESE daylight
20 Jun - 20:53:36 10° W 20:58:09 30° SSW 21:02:05 10° SE visible
21 Jun - 14:07:00 10° SSW 14:14:22 21° SSE 14:20:05 10° ESE daylight
21 Jun - 16:09:52 10° SW 16:18:33 43° SSE 16:24:28 10° E daylight
21 Jun - 18:15:13 10° WSW 18:22:25 58° S 18:27:28 10° ESE daylight
21 Jun - 20:20:36 10° W 20:25:42 35° SSW 20:29:51 10° SE visible
22 Jun - 13:34:05 10° S 13:41:28 20° SSE 13:47:19 10° ESE daylight
22 Jun - 15:36:31 10° SW 15:45:46 42° SSE 15:52:04 10° E daylight
22 Jun - 17:41:55 10° WSW 17:49:47 59° S 17:55:09 10° E daylight
22 Jun - 19:47:32 10° W 19:53:14 40° SSW 19:57:38 10° SE daylight
22 Jun - 21:54:36 10° SW 21:55:47 11° SW 21:56:56 10° SSW visible
23 Jun - 13:01:15 10° S 13:08:31 18° SE 13:14:26 10° ESE daylight
23 Jun - 15:03:08 10° SW 15:12:56 41° SSE 15:19:38 10° E daylight
23 Jun - 17:08:32 10° WSW 17:17:07 60° S 17:22:49 10° E daylight
23 Jun - 19:14:23 10° W 19:20:43 45° SSW 19:25:23 10° SE daylight
23 Jun - 21:20:46 10° WSW 21:23:21 14° SW 21:25:44 10° S visible
24 Jun - 12:28:31 10° S 12:35:33 17° SE 12:41:24 10° ESE daylight
24 Jun - 14:29:45 10° SW 14:40:02 39° SSE 14:47:09 10° E daylight
24 Jun - 16:35:05 10° WSW 16:44:22 60° S 16:50:29 10° E daylight
24 Jun - 18:41:09 10° W 18:48:10 50° SSW 18:53:08 10° ESE daylight
24 Jun - 20:47:21 10° WSW 20:50:56 18° SW 20:54:03 10° S visible
25 Jun - 11:55:58 10° S 12:02:32 16° SE 12:08:11 10° ESE daylight
25 Jun - 13:56:22 10° SW 14:07:05 38° SSE 14:14:37 10° E daylight
25 Jun - 16:01:35 10° WSW 16:11:34 60° S 16:18:07 10° E daylight
25 Jun - 18:07:49 10° W 18:15:34 55° SSW 18:20:53 10° ESE daylight
25 Jun - 20:14:01 10° W 20:18:30 22° SW 20:22:12 10° SSE visible
26 Jun - 11:23:40 10° SSE 11:29:30 14° SE 11:34:40 10° ESE daylight
26 Jun - 13:23:02 10° SSW 13:34:04 36° SSE 13:42:01 10° E daylight
26 Jun - 15:28:01 10° WSW 15:38:43 59° S 15:45:43 10° E daylight
26 Jun - 17:34:24 10° W 17:42:55 59° S 17:48:36 10° ESE daylight
26 Jun - 19:40:41 10° W 19:46:04 26° SSW 19:50:14 10° SSE daylight
27 Jun - 10:51:47 10° SSE 10:56:27 12° SE 11:00:45 10° ESE daylight
27 Jun - 12:49:43 10° SSW 13:00:59 34° SSE 13:09:21 10° E daylight
27 Jun - 14:54:24 10° WSW 15:05:46 58° SSE 15:13:18 10° E daylight
27 Jun - 17:00:54 10° W 17:10:12 62° S 17:16:18 10° ESE daylight
27 Jun - 19:07:20 10° W 19:13:35 32° SSW 19:18:13 10° SSE daylight
28 Jun - 10:20:52 10° SE 10:23:24 11° SE 10:25:50 10° ESE daylight
28 Jun - 12:16:29 10° SSW 12:27:53 32° SSE 12:36:35 10° E daylight
28 Jun - 14:20:48 10° WSW 14:32:47 57° SSE 14:40:49 10° E daylight
28 Jun - 16:27:19 10° W 16:37:25 65° S 16:43:58 10° ESE daylight
28 Jun - 18:33:55 10° W 18:41:03 37° SSW 18:46:07 10° SE daylight
